Sault Ste Marie, MI

1:44 AM EDT on August 21, 2017 (GMT -0400)
Sault Ste Marie Municipal / Sanderson Field

Weather History for KANJ - August, 2013

Change the Weather History Date:

Sunday, August 18, 2013

  Actual Average Record
Temperature  
Mean Temperature 68 °F 65 °F  
Max Temperature 80 °F 75 °F 93 °F (1955)
Min Temperature 56 °F 55 °F 35 °F (1981)
Degree Days  
Heating Degree Days 0 2  
Month to date heating degree days 65 36  
Since 1 June heating degree days 261 285  
Since 1 July heating degree days 115 105  
Cooling Degree Days 3 2  
Month to date cooling degree days 8 47  
Year to date cooling degree days 172 160  
Since 1 June cooling degree days 163 155  
Growing Degree Days 17 (Base 50)    
Moisture  
Dew Point 57 °F    
Average Humidity 73    
Maximum Humidity 93    
Minimum Humidity 52    
Precipitation  
Precipitation 0.00 in 0.10 in 1.58 in (1905)
Month to date precipitation 2.14 1.83  
Year to date precipitation 25.39 17.83  
Sea Level Pressure  
Sea Level Pressure 30.12 in    
Wind  
Wind Speed 5 mph (SW)    
Max Wind Speed 13 mph    
Max Gust Speed 17 mph    
Visibility 10 miles    
Events      
T = Trace of Precipitation, MM = Missing Value Source: NWS Daily Summary

Daily Weather History Graph

Daily Weather History Graph

Search for Another Location

Airport or City:

Trip Planner

Search our weather history database for the weather conditions in past years. The results will help you decide how hot, cold, wet, or windy it might be!

Date:

Astronomy

Aug. 18, 2013 Rise Set
Actual Time 6:40 AM EDT 8:41 PM EDT
Civil Twilight 6:07 AM EDT 9:14 PM EDT
Nautical Twilight 5:27 AM EDT 9:54 PM EDT
Astronomical Twilight 4:42 AM EDT 10:38 PM EDT
Moon 6:50 PM EDT (8/18) 3:43 AM EDT (8/18)
Length of Visible Light 15h 06m
Length of Day
14h 01m
Waxing Gibbous, 92% of the Moon is Illuminated
Aug 18
Waxing Gibbous
Aug 20
Full
Aug 28
Last Quarter
Sep 5
New
Sep 12
First Quarter

Hourly Weather History & Observations

Time (EDT) Temp. Dew Point Humidity Pressure Visibility Wind Dir Wind Speed Gust Speed Precip Events Conditions
12:55 AM 59.0 °F 54.0 °F 83% 30.16 in 10.0 mi East 4.6 mph - N/A   Clear
1:55 AM 59.0 °F 54.0 °F 83% 30.16 in 10.0 mi NE 3.5 mph - N/A   Clear
2:55 AM 57.0 °F 53.1 °F 87% 30.17 in 10.0 mi Calm Calm - N/A   Clear
3:55 AM 57.9 °F 54.0 °F 87% 30.16 in 10.0 mi Calm Calm - N/A   Clear
4:55 AM 57.0 °F 55.0 °F 93% 30.16 in 9.0 mi East 3.5 mph - N/A   Clear
5:55 AM 57.0 °F 54.0 °F 89% 30.16 in 10.0 mi Calm Calm - N/A   Clear
6:55 AM 55.9 °F 54.0 °F 93% 30.17 in 10.0 mi Calm Calm - N/A   Clear
7:55 AM 59.0 °F 55.9 °F 90% 30.17 in 10.0 mi Calm Calm - N/A   Clear
8:55 AM 63.0 °F 57.9 °F 84% 30.17 in 10.0 mi South 4.6 mph - N/A   Clear
9:55 AM 69.1 °F 60.1 °F 73% 30.16 in 10.0 mi Variable 4.6 mph - N/A   Clear
10:55 AM 72.0 °F 60.1 °F 66% 30.16 in 10.0 mi SW 5.8 mph - N/A   Clear
11:55 AM 75.9 °F 62.1 °F 62% 30.14 in 10.0 mi SW 8.1 mph - N/A   Clear
12:55 PM 79.0 °F 60.1 °F 52% 30.13 in 10.0 mi SW 9.2 mph - N/A   Clear
1:55 PM 77.0 °F 59.0 °F 54% 30.12 in 10.0 mi WSW 9.2 mph - N/A   Clear
2:55 PM 78.1 °F 61.0 °F 56% 30.11 in 10.0 mi West 5.8 mph - N/A   Clear
3:55 PM 78.1 °F 60.1 °F 54% 30.10 in 10.0 mi SW 5.8 mph - N/A   Clear
4:55 PM 78.1 °F 59.0 °F 52% 30.09 in 10.0 mi West 4.6 mph - N/A   Clear
5:55 PM 75.9 °F 57.9 °F 54% 30.09 in 10.0 mi SSW 8.1 mph - N/A   Clear
6:55 PM 73.9 °F 57.0 °F 55% 30.09 in 10.0 mi SW 8.1 mph - N/A   Clear
7:55 PM 73.0 °F 55.9 °F 55% 30.06 in 10.0 mi SW 5.8 mph - N/A   Clear
8:55 PM 68.0 °F 54.0 °F 61% 30.06 in 10.0 mi SW 5.8 mph - N/A   Clear
9:55 PM 66.9 °F 54.0 °F 63% 30.06 in 10.0 mi WSW 5.8 mph - N/A   Clear
10:55 PM 64.0 °F 55.0 °F 73% 30.05 in 10.0 mi SSW 6.9 mph - N/A   Clear
11:55 PM 62.1 °F 55.9 °F 80% 30.05 in 10.0 mi SSW 3.5 mph - N/A   Clear